• In Denmark
  • List of Countries
  • For 7 days
  • Water Temperature
  • Satellite Maps
  • Weather Map
  • Weather Widgets
  • user-avatar
    Login

    Hourly Weather Nazaret

    Today, 19 November, Sunday

    Time Temperature Precipitation Wind Pressure Humidity
    00:00 +21°C° 0 mm 2 mps 727 mmHg 41%
    01:00 +20°C° 0 mm 2 mps 727 mmHg 45%
    02:00 +20°C° 0 mm 2 mps 727 mmHg 49%
    03:00 +19°C° 0.1 mm 2 mps 727 mmHg 54%
    04:00 +19°C° 0.1 mm 2 mps 727 mmHg 59%
    05:00 +18°C° 0.1 mm 2 mps 727 mmHg 64%
    06:00 +19°C° 0 mm 2 mps 728 mmHg 66%
    07:00 +20°C° 0 mm 2 mps 728 mmHg 68%
    08:00 +20°C° 0 mm 2 mps 728 mmHg 68%
    09:00 +21°C° 0 mm 2 mps 728 mmHg 65%
    10:00 +22°C° 0 mm 3 mps 729 mmHg 62%
    11:00 +22°C° 0 mm 3 mps 729 mmHg 59%
    12:00 +22°C° 0 mm 3 mps 729 mmHg 58%
    13:00 +22°C° 0 mm 4 mps 729 mmHg 57%
    14:00 +23°C° 0 mm 4 mps 729 mmHg 55%
    15:00 +22°C° 0 mm 4 mps 729 mmHg 59%
    16:00 +21°C° 0 mm 3 mps 729 mmHg 62%
    17:00 +20°C° 0 mm 3 mps 729 mmHg 65%
    18:00 +19°C° 0 mm 3 mps 729 mmHg 68%
    19:00 +19°C° 0 mm 2 mps 729 mmHg 70%
    20:00 +18°C° 0 mm 2 mps 729 mmHg 72%
    21:00 +19°C° 0 mm 1 mps 729 mmHg 74%
    22:00 +18°C° 0 mm 1 mps 729 mmHg 76%
    23:00 +18°C° 0 mm 1 mps 729 mmHg 77%

    Tomorrow, 20 November, Monday

    Time Temperature Precipitation Wind Pressure Humidity
    00:00 +18°C° 0 mm 1 mps 729 mmHg 78%
    01:00 +16°C° 0 mm 1 mps 729 mmHg 79%
    02:00 +16°C° 0 mm 1 mps 729 mmHg 80%
    03:00 +16°C° 0 mm 1 mps 729 mmHg 80%
    04:00 +16°C° 0 mm 1 mps 729 mmHg 80%
    05:00 +16°C° 0 mm 1 mps 729 mmHg 80%
    06:00 +16°C° 0 mm 1 mps 729 mmHg 77%
    07:00 +18°C° 0 mm 1 mps 729 mmHg 73%
    08:00 +18°C° 0 mm 2 mps 729 mmHg 70%
    09:00 +18°C° 0 mm 2 mps 729 mmHg 64%
    10:00 +19°C° 0 mm 3 mps 729 mmHg 58%
    11:00 +20°C° 0 mm 3 mps 729 mmHg 52%
    12:00 +21°C° 0.1 mm 4 mps 729 mmHg 51%
    13:00 +21°C° 0.1 mm 4 mps 728 mmHg 49%
    14:00 +21°C° 0.1 mm 5 mps 728 mmHg 48%
    15:00 +20°C° 0.3 mm 5 mps 728 mmHg 53%
    16:00 +19°C° 0.3 mm 4 mps 728 mmHg 59%
    17:00 +18°C° 0.3 mm 4 mps 728 mmHg 65%
    18:00 +18°C° 0.4 mm 4 mps 728 mmHg 67%
    19:00 +18°C° 0.4 mm 4 mps 728 mmHg 70%
    20:00 +17°C° 0.4 mm 3 mps 728 mmHg 72%
    21:00 +17°C° 0.7 mm 3 mps 728 mmHg 73%
    22:00 +17°C° 0.7 mm 3 mps 727 mmHg 73%
    23:00 +15°C° 0.7 mm 4 mps 727 mmHg 73%

    Day after tomorrow, 21 November, Tuesday

    Time Temperature Precipitation Wind Pressure Humidity
    00:00 +15°C° 0.3 mm 4 mps 727 mmHg 73%
    01:00 +15°C° 0.3 mm 4 mps 727 mmHg 72%
    02:00 +15°C° 0.3 mm 5 mps 727 mmHg 71%
    03:00 +15°C° 0.6 mm 5 mps 726 mmHg 72%
    04:00 +15°C° 0.6 mm 5 mps 726 mmHg 72%
    05:00 +15°C° 0.6 mm 6 mps 726 mmHg 72%
    06:00 +15°C° 1 mm 7 mps 726 mmHg 71%
    07:00 +15°C° 1 mm 7 mps 726 mmHg 71%
    08:00 +16°C° 1 mm 8 mps 726 mmHg 70%
    09:00 +16°C° 1 mm 8 mps 726 mmHg 71%
    10:00 +16°C° 1 mm 8 mps 726 mmHg 72%
    11:00 +16°C° 1 mm 9 mps 726 mmHg 73%
    12:00 +16°C° 0.5 mm 9 mps 726 mmHg 68%
    13:00 +16°C° 0.5 mm 9 mps 726 mmHg 64%
    14:00 +16°C° 0.5 mm 9 mps 726 mmHg 60%
    15:00 +15°C° 0.2 mm 8 mps 726 mmHg 62%
    16:00 +15°C° 0.2 mm 8 mps 726 mmHg 64%
    17:00 +14°C° 0.2 mm 7 mps 726 mmHg 66%
    18:00 +14°C° 0.2 mm 7 mps 726 mmHg 66%
    19:00 +14°C° 0.2 mm 7 mps 727 mmHg 67%
    20:00 +14°C° 0.2 mm 7 mps 727 mmHg 67%
    21:00 +13°C° 0.3 mm 6 mps 727 mmHg 68%
    22:00 +13°C° 0.3 mm 6 mps 727 mmHg 70%
    23:00 +13°C° 0.3 mm 6 mps 727 mmHg 71%

    22 November, Wednesday

    Time Temperature Precipitation Wind Pressure Humidity
    00:00 +13°C° 0.4 mm 6 mps 727 mmHg 71%
    01:00 +13°C° 0.4 mm 6 mps 727 mmHg 71%
    02:00 +13°C° 0.4 mm 6 mps 727 mmHg 71%
    03:00 +13°C° 0.5 mm 6 mps 727 mmHg 71%
    04:00 +13°C° 0.5 mm 6 mps 727 mmHg 71%
    05:00 +13°C° 0.5 mm 6 mps 727 mmHg 71%
    06:00 +13°C° 0.2 mm 6 mps 728 mmHg 68%
    07:00 +14°C° 0.2 mm 6 mps 728 mmHg 65%
    08:00 +14°C° 0.2 mm 6 mps 728 mmHg 63%
    09:00 +15°C° 0.1 mm 6 mps 729 mmHg 59%
    10:00 +15°C° 0.1 mm 6 mps 729 mmHg 56%
    11:00 +16°C° 0.1 mm 6 mps 729 mmHg 52%
    12:00 +16°C° 0 mm 6 mps 729 mmHg 51%
    13:00 +16°C° 0 mm 6 mps 729 mmHg 51%
    14:00 +16°C° 0 mm 7 mps 729 mmHg 50%
    15:00 +15°C° 0 mm 6 mps 729 mmHg 53%
    16:00 +15°C° 0 mm 5 mps 729 mmHg 56%
    17:00 +14°C° 0 mm 4 mps 729 mmHg 58%
    18:00 +14°C° 0 mm 4 mps 729 mmHg 60%
    19:00 +13°C° 0 mm 3 mps 730 mmHg 61%
    20:00 +13°C° 0 mm 3 mps 730 mmHg 62%
    21:00 +13°C° 0 mm 3 mps 730 mmHg 62%
    22:00 +14°C° 0 mm 2 mps 730 mmHg 63%
    23:00 +13°C° 0 mm 2 mps 730 mmHg 63%

    23 November, Thursday

    Time Temperature Precipitation Wind Pressure Humidity
    00:00 +13°C° 0 mm 2 mps 730 mmHg 64%
    01:00 +13°C° 0 mm 2 mps 730 mmHg 64%
    02:00 +12°C° 0 mm 2 mps 730 mmHg 65%
    03:00 +12°C° 0 mm 2 mps 730 mmHg 65%
    04:00 +12°C° 0 mm 2 mps 730 mmHg 66%
    05:00 +12°C° 0 mm 1 mps 730 mmHg 66%
    06:00 +12°C° 0 mm 1 mps 731 mmHg 65%
    07:00 +13°C° 0 mm 1 mps 731 mmHg 63%
    08:00 +13°C° 0 mm 1 mps 731 mmHg 62%
    09:00 +14°C° 0 mm 1 mps 731 mmHg 57%
    10:00 +15°C° 0 mm 1 mps 732 mmHg 52%
    11:00 +18°C° 0 mm 1 mps 732 mmHg 48%
    12:00 +17°C° 0 mm 2 mps 731 mmHg 46%
    13:00 +17°C° 0 mm 2 mps 731 mmHg 45%
    14:00 +18°C° 0 mm 3 mps 731 mmHg 44%
    15:00 +17°C° 0 mm 3 mps 731 mmHg 46%
    16:00 +16°C° 0 mm 3 mps 731 mmHg 49%
    17:00 +15°C° 0 mm 2 mps 731 mmHg 51%
    18:00 +15°C° 0 mm 2 mps 731 mmHg 53%
    19:00 +14°C° 0 mm 2 mps 731 mmHg 54%
    20:00 +14°C° 0 mm 2 mps 732 mmHg 56%
    21:00 +14°C° 0 mm 2 mps 732 mmHg 57%
    22:00 +13°C° 0 mm 2 mps 731 mmHg 58%
    23:00 +13°C° 0 mm 1 mps 731 mmHg 59%

    24 November, Friday

    Time Temperature Precipitation Wind Pressure Humidity
    00:00 +13°C° 0 mm 1 mps 731 mmHg 60%
    01:00 +13°C° 0 mm 1 mps 731 mmHg 61%
    02:00 +12°C° 0 mm 1 mps 731 mmHg 61%
    03:00 +12°C° 0 mm 1 mps 731 mmHg 62%
    04:00 +12°C° 0 mm 1 mps 731 mmHg 62%
    05:00 +12°C° 0 mm 1 mps 731 mmHg 63%
    06:00 +12°C° 0 mm 1 mps 732 mmHg 60%
    07:00 +13°C° 0 mm 1 mps 732 mmHg 57%
    08:00 +14°C° 0 mm 1 mps 732 mmHg 54%
    09:00 +15°C° 0 mm 1 mps 732 mmHg 50%
    10:00 +16°C° 0 mm 1 mps 732 mmHg 45%
    11:00 +18°C° 0 mm 1 mps 732 mmHg 41%
    12:00 +18°C° 0 mm 1 mps 732 mmHg 40%
    13:00 +18°C° 0 mm 2 mps 732 mmHg 39%
    14:00 +18°C° 0 mm 2 mps 732 mmHg 38%
    15:00 +17°C° 0 mm 2 mps 732 mmHg 42%
    16:00 +17°C° 0 mm 2 mps 732 mmHg 45%
    17:00 +16°C° 0 mm 2 mps 732 mmHg 48%
    18:00 +16°C° 0 mm 2 mps 732 mmHg 51%
    19:00 +15°C° 0 mm 2 mps 733 mmHg 54%
    20:00 +15°C° 0 mm 2 mps 733 mmHg 56%
    21:00 +14°C° 0 mm 2 mps 733 mmHg 57%
    22:00 +14°C° 0 mm 2 mps 733 mmHg 58%
    23:00 +14°C° 0 mm 2 mps 733 mmHg 59%
    Show more